This demonstration page uses our WeatherBlox Daily Observations layout. Learn more.

Left ArrowRight Arrow

Hourly Observations for November 23, 2021

Temp ( °F °C ) Dew Point ( °F °C ) Humidity (%) Winds ( mph kmh ) Pressure ( in mb ) Visibility ( mi km ) Precip ( " mm )
12:53 am 00:53 Clear 42 5.6 10 -12.2 27 27 SW 12 19 29.72 1007 10 16 0.00 0.00
1:53 am 01:53 Clear 40 4.4 11 -11.7 30 30 SSW 12 19 29.73 1007 10 16 0.00 0.00
2:53 am 02:53 Clear 37 2.8 11 -11.7 34 34 SSW 12 19 29.73 1007 10 16 0.00 0.00
3:53 am 03:53 Clear 40 4.4 10 -12.2 29 29 SW 10 17 29.71 1006 10 16 0.00 0.00
4:53 am 04:53 Partly Cloudy 29 -1.7 11 -11.7 47 47 WSW 9 15 29.70 1006 10 16 0.00 0.00
5:53 am 05:53 Cloudy 35 1.7 13 -10.6 40 40 WSW 6 9 29.68 1005 10 16 0.00 0.00
6:53 am 06:53 Clear 32 0 13 -10.6 45 45 SW 16 26 29.66 1004 10 16 0.00 0.00
7:53 am 07:53 Sunny 31 -0.6 13 -10.6 47 47 SW 16 26 29.64 1004 10 16 0.00 0.00
8:53 am 08:53 Sunny 34 1.1 14 -10 44 44 SW 13 20 29.63 1003 10 16 0.00 0.00
9:53 am 09:53 Sunny 42 5.6 13 -10.6 30 30 SW 15 24 29.63 1003 10 16 0.00 0.00
10:53 am 10:53 Sunny 44 6.7 13 -10.6 28 28 SW 15 24 29.65 1004 10 16 0.00 0.00
11:53 am 11:53 Mostly Cloudy 45 7.2 14 -10 29 29 SW 14 22 29.63 1003 10 16 0.00 0.00
12:53 pm 12:53 Cloudy 43 6.1 23 -5 45 45 NW 16 26 29.65 1004 10 16 0.00 0.00
1:53 pm 13:53 Cloudy 39 3.9 36 2.2 89 89 W 9 15 29.68 1005 10 16 0.00 0.00
2:42 pm 14:42 Cloudy with Light Rain 39 3.9 37 2.8 93 93 W 7 11 29.71 1006 10 16 0.01 0.25
2:51 pm 14:51 Cloudy with Light Rain 39 4 37 3 93 93 WSW 5 7 29.71 1006 10 16 0.01 0.25
2:53 pm 14:53 Cloudy 39 3.9 38 3.3 96 96 SW 6 9 29.70 1006 10 16 0.01 0.25
3:53 pm 15:53 Cloudy 39 3.9 38 3.3 96 96 NNW 3 6 29.72 1007 10 16 0.00 0.00
4:06 pm 16:06 Cloudy with Light Rain 38 3.3 37 2.8 97 97 N 5 7 29.76 1008 10 16 0.00 0.00
4:33 pm 16:33 Cloudy with Light Snow 33 0.6 32 0 96 96 N 15 24 29.81 1010 2 3 0.06 1.52
4:40 pm 16:40 Cloudy with Light Snow 33 0.6 32 0 96 96 N 14 22 29.82 1010 1 2 0.09 2.29
4:48 pm 16:48 Cloudy with Light Snow 34 1 32 0 93 93 NNE 18 30 29.82 1010 2 2 0.10 2.54
4:53 pm 16:53 Cloudy with Light Snow 33 0.6 32 0 96 96 NNE 15 24 29.81 1010 2 2 0.10 2.54
5:17 pm 17:17 Cloudy with Light Snow 33 0.6 32 0 96 96 NNE 16 26 29.85 1011 2 2 0.02 0.51
5:43 pm 17:43 Windy with Snow Likely 32 0 30 -1.1 92 92 NNE 20 31 29.88 1012 1 2 0.02 0.51
5:53 pm 17:53 Cloudy with Light Snow 32 0 31 -0.6 96 96 NE 18 30 29.85 1011 1 2 0.03 0.76
6:06 pm 18:06 Cloudy with Light Snow 32 0 30 -1.1 92 92 NE 15 24 29.90 1013 1 2 0.00 0.00
6:53 pm 18:53 Cloudy with Light Snow 31 -0.6 29 -1.7 92 92 NE 13 20 29.91 1013 1 2 0.02 0.51
7:25 pm 19:25 Cloudy with Light Snow 31 -0.6 30 -1.1 96 96 NNE 9 15 29.97 1015 2 3 0.02 0.51
7:53 pm 19:53 Cloudy with Light Snow 30 -1.1 29 -1.7 96 96 NNE 9 15 29.96 1015 2 3 0.03 0.76
8:04 pm 20:04 Cloudy with Light Snow 30 -1.1 28 -2.2 92 92 NNE 6 9 30.00 1016 6 10 0.00 0.00
8:17 pm 20:17 Cloudy 30 -1.1 27 -2.8 88 88 NNE 6 9 30.00 1016 10 16 0.00 0.00
8:53 pm 20:53 Cloudy 30 -1.1 24 -4.4 79 79 NNE 8 13 29.98 1015 10 16 0.00 0.00
9:53 pm 21:53 Cloudy 28 -2.2 22 -5.6 78 78 N 7 11 30.01 1016 10 16 0.00 0.00
10:53 pm 22:53 Cloudy 25 -3.9 19 -7.2 78 78 NE 8 13 30.06 1018 10 16 0.00 0.00
11:53 pm 23:53 Partly Cloudy 21 -6.1 17 -8.3 85 85 SSW 3 6 30.10 1019 10 16 0.00 0.00

Powered by AerisWeather